Preview of NWS' New Version of Forecast
This preview is not operational and should not be used for support decisions.

Regional Weather Roundup (RWR)

Issued by National Weather Service (NWS)

                            
000
ASUS43 KTOP 240659
RWRKS 

WEATHER ROUNDUP FOR KANSAS
NATIONAL WEATHER SERVICE GOODLAND KS
200 AM CDT SUN MAR 24 2019

NOTE:  "FAIR" INDICATES FEW OR NO CLOUDS BELOW 12,000 FEET WITH NO
SIGNIFICANT WEATHER AND/OR OBSTRUCTIONS TO VISIBILITY.

KSZ001>006-013>018-027>032-041>047-240800-
NORTHWEST KANSAS
  
CITY           SKY/WX    TMP DP  RH WIND       PRES   REMARKS
GOODLAND       FAIR      38  37  97 NW12      29.99S WCI  30          
HAYS           PTCLDY    41  39  93 W12       29.96S                  
HILL CITY      CLEAR     41  39  93 W9        29.94F FOG              
RUSSELL        CLEAR     42  41  96 W12       29.94R                  
$$

KSZ061>065-074>080-084>089-240800-
SOUTHWEST KANSAS
  
CITY           SKY/WX    TMP DP  RH WIND       PRES   REMARKS
DODGE CITY     CLOUDY    46  39  76 NW15      29.99R                  
GARDEN CITY    CLOUDY    44  39  82 NW12      30.00F                  
GREAT BEND     PTCLDY    42  39  89 W8        29.97S                  
LIBERAL        CLEAR     39  37  92 NW9       30.03R                  
$$

KSZ066>073-081>083-090>101-240800-
SOUTHEAST KANSAS
  
CITY           SKY/WX    TMP DP  RH WIND       PRES   REMARKS
CHANUTE        MOCLDY    50  48  93 S7        29.99R                  
COFFEYVILLE    MOCLDY    51  49  92 S8        29.97F                  
HUTCHINSON     LGT RAIN  52  49  89 SW3       29.96F                  
MEDICINE LODGE   N/A     48  48 100 CALM      29.96F                  
NEWTON         LGT RAIN  50  50 100 SW12      29.98R FOG              
PARSONS        CLOUDY    51  49  92 S5        29.99S                  
WICHITA INTL   FOG       52  50  93 SW9       29.97R VSB 3/4          
WICHITA JABRA  CLOUDY    51  50  96 S7        29.95R FOG              
WICHITA MCCONL CLOUDY    52  52 100 S6        29.95F                  
WINFIELD       CLOUDY    51  49  92 SE8       29.96F                  
$$

KSZ007>012-019>026-033>040-048>060-102>105-240800-
NORTHEAST KANSAS
  
CITY           SKY/WX    TMP DP  RH WIND       PRES   REMARKS
CONCORDIA      CLEAR     46  42  86 SW13      29.90S                  
EMPORIA        CLOUDY    49  48  97 S16       29.93F                  
LAWRENCE       MOCLDY    49  44  83 SE10      29.97F                  
MANHATTAN      CLOUDY    53  49  86 SW12      29.93S                  
OLATHE IND     PTCLDY    48  45  89 SE12      29.98F                  
OLATHE EXE     PTCLDY    47  44  90 S9        29.98F                  
SALINA         PTCLDY    48  41  76 W8        29.95S                  
TOPEKA BILLARD LGT RAIN  51  45  79 SE12      29.97R                  
TOPEKA FORBES  CLOUDY    50  45  83 S7        29.97R                  
$$